Hourly Data Report for September 09, 2017

All times are specified in Local Standard Time (LST). Add 1 hour to adjust for Daylight Saving Time where and when it is observed.

SAINT JOHN A
NEW BRUNSWICK

45°18'58.000" N
65°53'24.000" W
108.80 m
8104901
71609
YSJ

Download Data

Hourly Data (September 2017)
Hourly Data Report for September 9, 2017
Temp Definition
°C
Dew Point Temp Definition
°C
Rel Hum Definition
%
Wind Dir Definition
10's deg

Wind Spd Definition
km/h
Visibility Definition
km
Stn Press Definition
kPa
Hmdx Definition


Wind Chill Definition


Weather Definition


TIME
00:00 Legend Double Dagger 10.2 10.1 100 18 9 0.8 100.61     Fog
01:00 Legend Double Dagger 11.9 11.9 100 14 6 2.4 100.60     Fog
02:00 Legend Double Dagger 11.9 11.8 99 20 4 0.8 100.61     Fog
03:00 Legend Double Dagger 11.9 11.8 99 36 3 3.2 100.62     Fog
04:00 Legend Double Dagger 11.8 11.7 99 9 4 4.8 100.62     Fog
05:00 Legend Double Dagger 11.4 11.3 100 4 3 1.6 100.64     Fog
06:00 Legend Double Dagger 11.8 11.6 99 36 1 24.1 100.69     LegendNANA
07:00 Legend Double Dagger 12.5 11.9 96 12 4 12.9 100.78     LegendNANA
08:00 Legend Double Dagger 12.8 12.0 95 36 2 6.4 100.83     Fog
09:00 Legend Double Dagger 13.4 11.3 87 36 2 12.9 100.87     LegendNANA
10:00 Legend Double Dagger 14.5 11.4 82 36 1 16.1 100.89     LegendNANA
11:00 Legend Double Dagger 16.4 10.9 70 29 3 19.3 100.87     Mostly Cloudy
12:00 Legend Double Dagger 18.9 11.7 62 1 14 24.1 100.84     LegendNANA
13:00 Legend Double Dagger 19.7 10.6 55 2 5 24.1 100.81     LegendNANA
14:00 Legend Double Dagger 21.1 10.7 51 3 9 24.1 100.78     Mostly Cloudy
15:00 Legend Double Dagger 19.4 10.8 57 35 13 24.1 100.76     LegendNANA
16:00 Legend Double Dagger 20.0 12.2 61 1 18 24.1 100.76     LegendNANA
17:00 Legend Double Dagger 18.9 12.8 67 1 18 19.3 100.78     Rain Showers
18:00 Legend Double Dagger 14.7 12.4 86 11 9 19.3 100.87     LegendNANA
19:00 Legend Double Dagger 14.9 12.2 84 1 4 19.3 100.87     LegendNANA
20:00 Legend Double Dagger 13.6 11.7 88 4 9 19.3 100.92     Mostly Cloudy
21:00 Legend Double Dagger 12.3 11.5 95 8 8 24.1 100.97     LegendNANA
22:00 Legend Double Dagger 11.4 10.7 96 3 7 24.1 100.99     LegendNANA
23:00 Legend Double Dagger 13.1 12.5 96 1 10 24.1 101.00     Mainly Clear

Notes on Data Quality.

Legend

  • E = Estimated
  • M = Missing
  • NA = Not Available
  • ‡ = Partner data that is not subject to review by the National Climate Archives
Date modified: